Home   Weather   Chernobyl   Past weeks

Flag for Ukraine Past Weather in Chernobyl, Ukraine — Yesterday and Last 2 Weeks

Now
54 °F

Overcast.


Feels Like: 52 °F
Forecast: 47 / 58 °F
Wind: 6 mph from North

Location: Hostomel

Current Time: Sep 27, 2016 at 5:00:30 PM

Latest Report: Sep 27, 2016 at 4:30 PM


Visibility: N/A

Pressure: 30.24 "Hg

Humidity: 63%

Dew Point: 41 °F

Location of ChernobylLocation

Past Weather in Chernobyl — Graph

°F

Chernobyl Temperature Yesterday

Maximum temperature yesterday: 63 °F (at 3:00 PM)
Minimum temperature yesterday: 43 °F (at 5:00 AM)
Average temperature yesterday: 51 °F

High & Low Weather Summary for the Past Weeks

 TemperatureHumidityPressure
High84 °F (Sep 12, 3:00 PM)100% (Sep 13, 6:00 AM)30.24 "Hg (Sep 13, 6:00 AM)
Low37 °F (Sep 19, 6:00 AM)20% (Sep 13, 5:30 PM)29.80 "Hg (Sep 20, 2:30 PM)
Average54 °F72%30.02 "Hg
* Reported Sep 12 3:00 PM — Sep 27 3:30 PM, Chernobyl, Weather by CustomWeather, © 2016

Note: Actual official high and low records may vary slightly from our data, if they occured in-between our weather recording intervals... More about our weather records

Advertising

Chernobyl Weather History for the Previous 24 Hours

Scroll right to see more
 ConditionsComfort  
Time TempWeatherWind HumidityBarometerVisibility
3:30 PM
Tue, Sep 27
54 °FOvercast.8 mph63%30.24 "HgN/A
3:00 PM54 °FOvercast.10 mph63%30.24 "HgN/A
2:30 PM54 °FOvercast.10 mph63%30.24 "HgN/A
2:00 PM54 °FOvercast.10 mph63%30.24 "HgN/A
1:30 PM54 °FOvercast.8 mph63%30.24 "HgN/A
1:00 PM52 °FOvercast.10 mph72%30.24 "HgN/A
12:30 PM50 °FOvercast.10 mph76%30.24 "HgN/A
12:00 PM50 °FPartly sunny.13 mph76%30.24 "HgN/A
11:30 AM50 °FPartly sunny.10 mph76%30.24 "HgN/A
11:00 AM48 °FPartly sunny.8 mph82%30.24 "HgN/A
10:30 AM48 °FPartly sunny.6 mph82%30.24 "HgN/A
10:00 AM46 °FPartly sunny.8 mph87%30.24 "HgN/A
9:30 AM45 °FPartly sunny.8 mph93%30.24 "HgN/A
9:00 AM45 °FPartly sunny.8 mph87%30.24 "HgN/A
8:30 AM43 °FPartly sunny.8 mph93%30.24 "HgN/A
8:00 AM39 °FPassing clouds.6 mph100%30.24 "HgN/A
7:30 AM39 °FSunny.3 mph93%30.24 "Hg10 mi
7:00 AM37 °FSunny.6 mph100%30.21 "Hg10 mi
6:30 AM39 °FChilly.6 mph93%30.21 "Hg6 mi
6:00 AM39 °FChilly.3 mph93%30.21 "Hg6 mi
5:30 AM39 °FChilly.6 mph93%30.21 "Hg6 mi
5:00 AM39 °FChilly.6 mph93%30.21 "Hg6 mi
4:30 AM39 °FChilly.3 mph93%30.21 "Hg6 mi
4:00 AM39 °FChilly.3 mph93%30.21 "Hg6 mi
3:30 AM41 °FQuite cool.3 mph93%30.21 "Hg6 mi
3:00 AM41 °FQuite cool.3 mph93%30.21 "Hg6 mi
2:30 AM41 °FQuite cool.6 mph93%30.21 "Hg6 mi
2:00 AM41 °FQuite cool.3 mph87%30.21 "HgN/A
1:30 AM41 °FQuite cool.3 mph93%30.21 "HgN/A
1:00 AM43 °FQuite cool.3 mph87%30.21 "HgN/A
12:30 AM43 °FQuite cool.6 mph87%30.21 "HgN/A
12:00 AM43 °FQuite cool.6 mph87%30.21 "HgN/A
11:30 PM
Mon, Sep 26
43 °FQuite cool.3 mph87%30.21 "HgN/A
11:00 PM45 °FQuite cool.3 mph81%30.21 "HgN/A
10:30 PM46 °FCool.6 mph82%30.21 "HgN/A
10:00 PM45 °FQuite cool.6 mph87%30.21 "Hg6 mi
9:30 PM46 °FCool.6 mph82%30.21 "HgN/A
9:00 PM48 °FCool.3 mph76%30.21 "HgN/A
8:30 PM48 °FCool.6 mph76%30.21 "Hg6 mi
8:00 PM54 °FCool.6 mph67%30.21 "HgN/A
7:30 PM54 °FCool.6 mph67%30.18 "HgN/A
7:00 PM55 °FCool.6 mph63%30.18 "HgN/A
6:30 PM57 °FRefreshingly cool.6 mph59%30.18 "HgN/A
6:00 PM59 °FRefreshingly cool.6 mph55%30.18 "HgN/A
5:30 PM61 °FRefreshingly cool.10 mph52%30.15 "HgN/A
5:00 PM61 °FSunny.10 mph48%30.15 "Hg10 mi
Weather by CustomWeather, © 2016

See weather overviewHow to use our weather pages